Weather History for Litchfield, MN

Change the Weather History Date:

Wednesday, October 6, 2010

  Actual Average Record
Temperature  
Mean Temperature 60 °F -  
Max Temperature 66 °F 63 °F 87 °F (1961)
Min Temperature 53 °F 39 °F 21 °F (1976)
Degree Days  
Heating Degree Days 6    
Growing Degree Days 10 (Base 50)    
Moisture  
Dew Point 44 °F    
Average Humidity 60    
Maximum Humidity 88    
Minimum Humidity 30    
Precipitation  
Precipitation 0.00 in - - ()
Sea Level Pressure  
Sea Level Pressure 30.15 in    
Wind  
Wind Speed 7 mph (NW)    
Max Wind Speed 18 mph    
Max Gust Speed 23 mph    
Visibility 10 miles    
Events      
Averages and records for this station are not official NWS values.
T = Trace of Precipitation, MM = Missing Value Source: NWS Daily Summary

Daily Weather History Graph

Daily Weather History Graph

Search for Another Location

Airport:

Trip Planner

Search our weather history database for the weather conditions in past years. The results will help you decide how hot, cold, wet, or windy it might be!

Date:

Astronomy

Oct. 06, 2010 Rise Set
Actual Time 7:22 AM CDT 6:49 PM CDT
Civil Twilight 6:52 AM CDT 7:18 PM CDT
Nautical Twilight 6:18 AM CDT 7:52 PM CDT
Astronomical Twilight 5:44 AM CDT 8:26 PM CDT
Moon 5:58 AM CDT (10/6) 5:52 PM CDT (10/6)
Length of Visible Light 12h 25m
Length of Day
11h 26m
Waning Crescent, 2% of the Moon is Illuminated
Oct 6
Waning Crescent
Oct 7
New
Oct 14
First Quarter
Oct 22
Full
Oct 30
Last Quarter

Hourly Weather History & Observations

Time (CDT) Temp. Dew Point Humidity Pressure Visibility Wind Dir Wind Speed Gust Speed Precip Events Conditions
12:14 AM 59.0 °F 44.6 °F 59% 30.12 in 10.0 mi South 4.6 mph - N/A   Clear
12:34 AM 59.0 °F 44.6 °F 59% 30.11 in 10.0 mi South 3.5 mph - N/A   Clear
12:54 AM 59.0 °F 44.6 °F 59% 30.11 in 10.0 mi South 3.5 mph - N/A   Clear
1:15 AM 57.2 °F 44.6 °F 63% 30.11 in 10.0 mi South 3.5 mph - N/A   Clear
1:35 AM 57.2 °F 44.6 °F 63% 30.11 in 10.0 mi South 4.6 mph - N/A   Clear
1:54 AM 57.2 °F 44.6 °F 63% 30.10 in 10.0 mi South 5.8 mph - N/A   Clear
2:14 AM 57.2 °F 44.6 °F 63% 30.10 in 10.0 mi South 4.6 mph - N/A   Clear
2:34 AM 57.2 °F 46.4 °F 67% 30.10 in 10.0 mi SSW 3.5 mph - N/A   Clear
2:55 AM 55.4 °F 44.6 °F 67% 30.10 in 10.0 mi SSW 3.5 mph - N/A   Clear
3:14 AM 55.4 °F 44.6 °F 67% 30.09 in 10.0 mi SW 3.5 mph - N/A   Clear
3:35 AM 55.4 °F 46.4 °F 72% 30.09 in 10.0 mi Calm Calm - N/A   Clear
3:54 AM 55.4 °F 46.4 °F 72% 30.09 in 10.0 mi SSW 3.5 mph - N/A   Clear
4:14 AM 55.4 °F 46.4 °F 72% 30.09 in 10.0 mi Calm Calm - N/A   Clear
4:34 AM 55.4 °F 46.4 °F 72% 30.09 in 10.0 mi SW 3.5 mph - N/A   Clear
4:54 AM 53.6 °F 46.4 °F 77% 30.10 in 10.0 mi Calm Calm - N/A   Clear
5:14 AM 53.6 °F 46.4 °F 77% 30.10 in 10.0 mi WSW 3.5 mph - N/A   Clear
5:34 AM 53.6 °F 46.4 °F 77% 30.11 in 10.0 mi West 3.5 mph - N/A   Clear
5:54 AM 53.6 °F 48.2 °F 82% 30.11 in 10.0 mi West 4.6 mph - N/A   Clear
6:14 AM 53.6 °F 48.2 °F 82% 30.11 in 10.0 mi Calm Calm - N/A   Clear
6:34 AM 53.6 °F 48.2 °F 82% 30.11 in 10.0 mi WNW 6.9 mph - N/A   Clear
6:54 AM 55.4 °F 48.2 °F 77% 30.13 in 10.0 mi NW 9.2 mph - N/A   Clear
7:14 AM 55.4 °F 50.0 °F 82% 30.14 in 10.0 mi NNW 10.4 mph 16.1 mph N/A   Clear
7:34 AM 55.4 °F 51.8 °F 88% 30.15 in 10.0 mi NNW 12.7 mph - N/A   Clear
7:54 AM 55.4 °F 51.8 °F 88% 30.16 in 10.0 mi NNW 11.5 mph - N/A   Unknown
8:14 AM 55.4 °F 51.8 °F 88% 30.16 in 10.0 mi NNW 11.5 mph - N/A   Clear
8:34 AM 57.2 °F 51.8 °F 82% 30.17 in 10.0 mi NNW 13.8 mph - N/A   Clear
8:54 AM 57.2 °F 51.8 °F 82% 30.18 in 10.0 mi NNW 13.8 mph 18.4 mph N/A   Clear
9:14 AM 59.0 °F 51.8 °F 77% 30.19 in 10.0 mi North 18.4 mph 23.0 mph N/A   Clear
9:34 AM 59.0 °F 50.0 °F 72% 30.20 in 10.0 mi North 12.7 mph 20.7 mph N/A   Clear
9:54 AM 60.8 °F 48.2 °F 63% 30.21 in 10.0 mi North 16.1 mph 19.6 mph N/A   Clear
10:14 AM 60.8 °F 46.4 °F 59% 30.21 in 10.0 mi North 17.3 mph 20.7 mph N/A   Clear
10:34 AM 60.8 °F 44.6 °F 55% 30.21 in 10.0 mi North 13.8 mph 19.6 mph N/A   Clear
10:54 AM 60.8 °F 44.6 °F 55% 30.21 in 10.0 mi NNW 18.4 mph - N/A   Clear
11:14 AM 62.6 °F 44.6 °F 52% 30.22 in 10.0 mi North 15.0 mph - N/A   Clear
11:34 AM 62.6 °F 42.8 °F 48% 30.22 in 10.0 mi North 15.0 mph 21.9 mph N/A   Clear
11:54 AM 62.6 °F 41.0 °F 45% 30.22 in 10.0 mi North 13.8 mph 19.6 mph N/A   Clear
12:14 PM 62.6 °F 41.0 °F 45% 30.22 in 10.0 mi North 10.4 mph 17.3 mph N/A   Clear
12:34 PM 64.4 °F 41.0 °F 42% 30.22 in 10.0 mi North 8.1 mph 16.1 mph N/A   Clear
12:54 PM 64.4 °F 39.2 °F 40% 30.22 in 10.0 mi North 10.4 mph - N/A   Clear
1:14 PM 64.4 °F 39.2 °F 40% 30.21 in 10.0 mi North 9.2 mph - N/A   Clear
1:35 PM 64.4 °F 39.2 °F 40% 30.21 in 10.0 mi North 10.4 mph 18.4 mph N/A   Clear
1:54 PM 66.2 °F 41.0 °F 40% 30.20 in 10.0 mi North 11.5 mph - N/A   Clear
2:14 PM 66.2 °F 39.2 °F 37% 30.20 in 10.0 mi NNW 11.5 mph 16.1 mph N/A   Clear
2:35 PM 66.2 °F 37.4 °F 35% 30.19 in 10.0 mi NW 9.2 mph 18.4 mph N/A   Clear
2:54 PM 66.2 °F 37.4 °F 35% 30.18 in 10.0 mi North 9.2 mph 18.4 mph N/A   Clear
3:14 PM 66.2 °F 37.4 °F 35% 30.18 in 10.0 mi NNW 9.2 mph - N/A   Clear
3:31 PM - - N/A% - - North - - N/A   Unknown
3:38 PM - - N/A% - - North - - N/A   Unknown
4:00 PM - - N/A% - - North - - N/A   Unknown
4:17 PM - - N/A% - - North - - N/A   Unknown
4:54 PM 66.2 °F 35.6 °F 32% 30.16 in 10.0 mi NW 6.9 mph - N/A   Unknown
5:14 PM 66.2 °F 35.6 °F 32% 30.16 in 10.0 mi NW 9.2 mph 18.4 mph N/A   Clear
5:34 PM 66.2 °F 33.8 °F 30% 30.16 in 10.0 mi NW 10.4 mph - N/A   Clear
5:52 PM 64.4 °F 37.4 °F 37% - 10.0 mi NW 8.1 mph - N/A   Clear
6:20 PM - - N/A% - - North - - N/A   Unknown
6:34 PM 62.6 °F 37.4 °F 39% 30.16 in 10.0 mi WNW 8.1 mph - N/A   Unknown
6:54 PM 60.8 °F 41.0 °F 48% 30.16 in 10.0 mi WNW 4.6 mph - N/A   Clear
7:14 PM 59.0 °F 41.0 °F 51% 30.16 in 10.0 mi WNW 5.8 mph - N/A   Clear
7:34 PM 55.4 °F 42.8 °F 63% 30.16 in 10.0 mi West 4.6 mph - N/A   Clear
7:54 PM 55.4 °F 42.8 °F 63% 30.16 in 10.0 mi West 5.8 mph - N/A   Clear
8:14 PM 57.2 °F 41.0 °F 55% 30.17 in 10.0 mi WNW 6.9 mph - N/A   Clear
8:35 PM 55.4 °F 41.0 °F 58% 30.17 in 10.0 mi WNW 6.9 mph - N/A   Clear
8:54 PM 55.4 °F 39.2 °F 54% 30.17 in 10.0 mi NW 8.1 mph - N/A   Clear
9:14 PM 55.4 °F 37.4 °F 51% 30.18 in 10.0 mi WNW 6.9 mph - N/A   Clear
9:34 PM 53.6 °F 39.2 °F 58% 30.17 in 10.0 mi WNW 6.9 mph - N/A   Clear
9:54 PM 53.6 °F 39.2 °F 58% 30.17 in 10.0 mi WNW 5.8 mph - N/A   Clear
10:14 PM 53.6 °F 39.2 °F 58% 30.17 in 10.0 mi WNW 5.8 mph - N/A   Clear
10:34 PM 51.8 °F 39.2 °F 62% 30.18 in 10.0 mi WNW 6.9 mph - N/A   Clear
10:54 PM 51.8 °F 39.2 °F 62% - 10.0 mi WNW 5.8 mph - N/A   Clear
11:14 PM 51.8 °F 37.4 °F 58% 30.18 in 10.0 mi West 4.6 mph - N/A   Clear
11:34 PM 48.2 °F 39.2 °F 71% 30.19 in 10.0 mi West 4.6 mph - N/A   Clear
11:55 PM 48.2 °F 39.2 °F 71% 30.18 in 10.0 mi West 3.5 mph - N/A   Clear